Weather Roundup
Issued by NWS Chicago, IL

Home | Current Version | Previous Version | Graphics & Text | Print | Product List | Glossary On
Versions: 1 2 3 4 5 6 7 8 9 10 11 12 13 14 15 16 17 18 19 20 21 22 23 24 25 26 27 28 29 30 31 32 33 34 35 36 37 38 39 40 41 42 43 44 45 46 47 48 49 50
000
NZUS59 KLOT 252121
HRRLOT

CHICAGO AREA WEATHER ROUNDUP
NATIONAL WEATHER SERVICE CHICAGO/ROMEOVILLE IL
400 PM CDT SAT APR 25 2015

NOTE: "FAIR" INDICATES FEW OR NO CLOUDS BELOW 12,000 FEET WITH NO
SIGNIFICANT WEATHER AND/OR OBSTRUCTIONS TO VISIBILITY.

* THESE STATIONS ARE NOT UNDER NWS QUALITY CONTROL. THEY ALSO MAY NOT
  REPORT WEATHER SUCH AS PRECIPITATION OR FOG.

ILZ005-006-012>014-019>023-252200-
NORTHEAST ILLINOIS

CITY           SKY/WX    TMP DP  RH WIND       PRES   REMARKS
OHARE          CLOUDY    47  40  76 E18G25    29.72S
MIDWAY         PTSUNNY   48  43  82 NE24G32   29.72S
AURORA         PTSUNNY   48  40  73 E21G28    29.71R
LANSING*       CLOUDY    46  41  84 NE15      29.71R
JOLIET*        LGT RAIN  48  44  88 NE16G23   29.70R
WAUKEGAN       CLOUDY    42  35  76 N16G24    29.77F
DUPAGE AIRPORT CLOUDY    47  40  76 E21G30    29.70F
WHEELING       CLOUDY    45  39  79 NE13      29.76S
KANKAKEE*      CLOUDY    48  43  84 E16       29.67S
MORRIS*        LGT RAIN  47  43  86 E17G24    29.67R
LEWIS AIRPORT* CLOUDY    46  42  86 E22       29.71R
NORTHERLY IS     N/A     44  41  89 NE17        N/A
$$

WIZ051-052-058>065-066-070>072-252200-
SOUTHEAST WISCONSIN

CITY           SKY/WX    TMP DP  RH WIND       PRES   REMARKS
MILWAUKEE      CLOUDY    40  30  67 N22       29.83F
KENOSHA*       CLOUDY    45  35  68 NE16G22   29.79F
RACINE*        CLOUDY    41  32  70 N16G24    29.82F
BURLINGTON     CLOUDY    42  30  63 NE16      29.79F
WAUKESHA       CLOUDY    43  27  52 NE13G18   29.83F
WEST BEND      CLOUDY    45  23  42 NE14G20   29.83F
$$

INZ001>003-010>013-019-020-252200-
NORTHWEST INDIANA

CITY           SKY/WX    TMP DP  RH WIND       PRES   REMARKS
GARY*          LGT RAIN  46  41  81 NE18G37   29.70F
MICHIGAN CITY* NOT AVBL
RENSSELAER*    NOT AVBL
VALPARAISO     CLOUDY    46  42  86 NE23G32   29.68F
$$

LMZ740>746-252200-
SOUTHERN LAKE MICHIGAN

STATION/POSITION TIME  SKY/WX   TEMP WIND        PRES    VSBY
                                AIR  DIR/SP/G
                 (UTC)          (F)  (DEG/KT/KT) (MB)    (MI)
HARRISON CRIB    2100            41   50/ 17/ 19   N/A
BURNHAM HARBOR   2100            44   40/ 16/ 18   N/A
CALUMET HARBOR   2100            44   40/ 16/ 20   N/A
BURNS HARBOR     2000            45   70/ 17/ 21 1007.5F
MICHIGAN CITY    2100            45   50/ 20/ 24   N/A
$$

ABBREVIATIONS USED IN REMARKS
   TC - TEMPERATURE IN CELSIUS
  WCI - WIND CHILL INDEX
   HX - HEAT INDEX
  VSB - VISIBILITY
$$



USA.gov is the U.S. government's official web portal to all federal, state and local government web resources and services.